Regional Weather Roundup
Issued by NWS Wakefield, VA

Home | Current Version | Previous Version | Text Only | Print | Product List | Glossary On
Versions: 1 2 3 4 5 6 7 8 9 10 11 12 13 14 15 16 17 18 19 20 21 22 23 24 25 26 27 28 29 30 31 32 33 34 35 36 37 38 39 40 41 42 43 44 45 46 47 48 49 50
000
ASUS41 KAKQ 070215
RWRAKQ

REGIONAL WEATHER ROUNDUP
NATIONAL WEATHER SERVICE WAKEFIELD VA
1000 PM EDT WED MAY 06 2015

Note: "fair" indicates few or no clouds below 12,000 feet with no
significant weather and/or obstructions to visibility. * = Denotes
station may not report precipitation (e.g., rain,snow,etc.),
thunder or fog.

VAZ042-051-052>054-056-070300-
NORTHERN VIRGINIA

CITY           SKY/WX    TMP DP  RH WIND       PRES   REMARKS
WASH NATIONAL  MOCLDY    72  58  61 E6        30.20R
DULLES         MOCLDY    69  65  86 N8        30.21R
FORT BELVOIR   MOCLDY    70  59  68 VRB2      30.19R
QUANTICO       MOCLDY    70  63  78 NE3       30.19R
FREDERICKSBRG* MOCLDY    72  60  65 CALM      30.16R
STAFFORD*      LGT RAIN  68  32  26 N5        30.22R
WARRENTON      MOCLDY    64  64  97 N7        30.20R
CULPEPER*      CLOUDY    62  61  96 N8        30.21R
MANASSAS*      PTCLDY    66  64  94 N7        30.20R
LEESBURG*      CLOUDY    70  68  94 NW7       30.23R
WINCHESTER     TSTM      64  59  82 E5        30.23S
FRONT ROYAL*   CLOUDY    63  61  94 NE10      30.24R
LURAY*         LGT RAIN  64  64 100 NE9       30.22R
$$

VAZ048-049-060>072-079>083-070300-
CENTRAL AND SOUTH CENTRAL VIRGINIA

CITY           SKY/WX    TMP DP  RH WIND       PRES   REMARKS
RICHMOND       CLOUDY    72  58  61 S5        30.16R
CHESTERFIELD*  FAIR      70  52  52 S6        30.18R
PETERSBURG*    MOCLDY    70  57  63 CALM      30.17R
HANOVER        MOCLDY    71  59  65 CALM      30.18R
TAPPAHANNOCK*  MOCLDY    67  54  61 CALM      30.18R
QUINTON*       FAIR      69  60  73 S6        30.16S
CHARLOTTSVILLE TSTM      64  62  93 N14       30.17R
GORDONSVILLE*  CLOUDY    64  63  97 CALM      30.17R FOG
ORANGE*        CLOUDY    63  63 100 CALM      30.19R FOG
LOUISA*        LGT RAIN  66  63  88 SW3       30.17S
BUMPASS*       FAIR      70  62  76 CALM      30.17S
FARMVILLE*     PTCLDY    71  61  71 CALM      30.15R
CREWE*         FAIR      69  59  71 CALM      30.16R
FORT PICKETT*  NOT AVBL
CHASE CITY*    FAIR      67  64  87 CALM      30.16S
CLARKSVILLE*   FAIR      66  59  77 CALM      30.15S
SOUTH HILL*    CLOUDY    67  58  72 CALM      30.22R
LAWRENCEVILLE* FAIR      67  58  71 CALM      30.16S
EMPORIA*       CLOUDY    64  57  77 CALM      30.18S
$$

VAZ088>098-070300-
SOUTHEAST VIRGINIA

CITY           SKY/WX    TMP DP  RH WIND       PRES   REMARKS
NORFOLK        MOCLDY    67  56  67 S5        30.18R
VIRGINIA BEACH CLOUDY    68  57  68 S5        30.18R
NORFOLK NAVAL  CLOUDY    72  57  59 S6        30.19R
WEST POINT*    MOCLDY    68  58  70 SE3       30.18S
SALUDA*        FAIR      65  58  78 SE3       30.17S
NEWPORT NEWS   MOCLDY    73  58  59 S6        30.18R
LANGLEY AFB    MOCLDY    68  57  67 S5        30.17R
FORT EUSTIS    MOCLDY    69  58  67 S6        30.16R
WILLIAMSBURG*  MOCLDY    72  63  73 S3        30.18R
HR EXEC AP*    FAIR      61  55  82 CALM      30.20R
FRANKLIN*      MOCLDY    65  57  77 SE3       30.18R
WAKEFIELD      MOCLDY    66  57  72 CALM      30.17R
$$

VAZ020-022-025-037-045-070300-
WEST CENTRAL AND SOUTHWEST VIRGINIA

CITY           SKY/WX    TMP DP  RH WIND       PRES   REMARKS
STAUNTON*      MOCLDY    65  60  84 CALM      30.20S
WAYNESBORO*    MOCLDY    67  59  75 S5        30.20R
HOT SPRINGS VA RAIN      64  52  64 CALM      30.28R
LYNCHBURG      MOCLDY    63  60  90 CALM      30.19R
DANVILLE       MOCLDY    73  56  54 VRB3      30.16R
SOUTH BOSTON*  FAIR      70  58  67 CALM      30.15S
MARTINSVILLE   CLOUDY    71  60  67 CALM      30.20R
ROANOKE        CLOUDY    64  60  87 CALM      30.20R
BLACKSBURG     MOCLDY    62  56  83 CALM      30.25R
DUBLIN*        MOCLDY    66  58  75 CALM      30.23R
MARION*        PTCLDY    61  58  91 CALM      30.25R
HILLSVILLE*    MOCLDY    66  53  62 E5        30.24R
RICHLANDS*     FAIR      66  52  60 CALM      30.23R
WISE*          CLOUDY    63  52  67 S3        30.23S
ABINGDON*      PTCLDY    66  55  67 E3        30.20R
$$

MDZ021>025-VAZ099-100-070300-
SOUTHERN MARYLAND AND THE DELMARVA PENINSULA

CITY           SKY/WX    TMP DP  RH WIND       PRES   REMARKS
PATUXENT RIVER MOCLDY    65  60  84 SE9       30.18R
BAY BRIDGE APT   N/A    N/A N/A N/A E8        30.22R
LEONARDTOWN    PTCLDY    64  57  77 NE5       30.20R
DOVER          PTCLDY    58  56  91 SE7       30.19R
GEORGETOWN     CLEAR     55  50  83 E6        30.23R
EASTON         CLEAR     63  53  70 SE5       30.25R
CAMBRIDGE      PTCLDY    61  52  72 E3        30.21R
SALISBURY      CLEAR     56  51  84 E6        30.22R
OCEAN CITY     PTCLDY    54  51  90 NE7       30.22R
WALLOPS ISLAND PTCLDY    58  56  93 NE10      30.21R
ACCOMACK*      MOCLDY    63  59  88 SE5       30.19S
$$

NCZ012>017-030>032-070300-
NORTH CENTRAL AND EASTERN NORTH CAROLINA

CITY           SKY/WX    TMP DP  RH WIND       PRES   REMARKS
ROANOKE RAPIDS FAIR      64  59  82 CALM      30.17R
RALEIGH        CLOUDY    66  53  63 CALM      30.16R
ELIZABETH CITY CLOUDY    64  58  80 E6        30.18R
AHOSKIE*       CLOUDY    63  58  84 CALM      30.18R
EDENTON*       CLOUDY    63  59  85 E3        30.18R
CURRITUCK*     CLOUDY    64  57  76 CALM      30.19S
KILL DEVIL HLS CLOUDY    62  59  89 E5        30.17S
MANTEO         CLOUDY    64  61  90 NE5       30.18R
CAPE HATTERAS  CLOUDY    65  57  75 E6        30.16R
TARBORO*       FAIR      63  58  82 CALM      30.18R
GOLDSBORO      CLOUDY    64  56  74 E3        30.13R
WASHINGTON     CLOUDY    62  58  84 CALM      30.16S
GREENVILLE     CLOUDY    64  57  77 CALM      30.17S
NEW BERN       CLOUDY    67  59  75 E7        30.15S
WILMINGTON     CLOUDY    66  58  75 NE8       30.12S
$$

VAZ048-070300-
ELSEWHERE

CITY           SKY/WX    TMP DP  RH WIND       PRES   REMARKS
HARRISBURG PA  CLOUDY    59  54  83 CALM      30.23R
BALTIMORE      CLOUDY    67  53  61 E9        30.21R
ANNAPOLIS      PTCLDY    66  54  65 E6        30.21R
ANDREWS AFB    MOCLDY    67  57  71 E8        30.19R
PHILADELPHIA   MOCLDY    63  50  62 E7        30.24R
HENDERSON NC   CLOUDY    69  55  60 CALM      30.17R
GREENSBORO     PTCLDY    71  54  54 SE8       30.16R
ROCKY MOUNT    CLOUDY    63  55  75 CALM      30.16R
$$

VAZ100-070300-
MARINE

STATION/POSITION TIME  TEMP    WIND        PRES    WAVE   SWELL
                       AIR SEA DIR/SP/G            HT/PER HT/PER
                 (UTC) (F)     (DEG/KT/KT) (MB)    (FT/S) (FT/S)
BRANDYWINE LGT   0112          130/  9/ 10   N/A
CAPE MAY NJ      0100   57 64   80/  5/  8 1022.6S
LEWES DE         0100   55 59  130/  7/  9 1022.8F
15NM E FENWICK I 0150   54 55              1022.9R   2/ 4
OCEAN-CITY-INLET 0112           70/  3/  8   N/A
WACHAPREAGUE VA  0100          140/  4/  5 1022.2R
THOMAS POINT MD  0200   65 60  110/ 15/ 17 1023.3R
GOOSES REEF MD   0200   65 65                N/A     1/ 2
COVE POINT MD    0100   68     170/  8/  8 1022.1R
SOLOMONS ISLAND  0112      62                N/A
BISHOPS HEAD MD  0100   66 71   90/ 12/ 14 1021.6R
PINEY POINT MD   0100          150/ 11/ 12   N/A
CAMBRIDGE MD     0100   65 66   80/ 12/ 15 1022.0R
LEWISETTA VA     0100   69 68              1021.3R
RAPPAHANNOCK LGT 0100          110/  8/  9 1022.4R
YORK RVR RNG VA  0100   66     160/ 11/ 12 1020.8R
YORKTOWN VA      0100          130/  2/  3 1021.1R
JAMESTOWN VA     0200   70 68  140/  4/  6 1020.9R
DOMINION TERM VA 0100   70     150/  9/ 10 1021.3R
KIPTOPEKE VA     0100      69  160/  8/ 10   N/A
CHES BAY BRIDGE  0112          150/  7/  8   N/A
CAPE HENRY VA    0100   66     160/  6/  9 1020.2S
CHESAPEAKE LGHT  0100   64     160/ 13/ 13 1022.2R
WILLOUBY STN VA  0100   70     150/  9/ 11 1022.0R
S CRANEY ISL VA  0100          220/  2/  5 1021.2R
CAPE HENRY BUOY  0128      64                N/A     2/ 8
1ST LANDING BUOY 0200      63                N/A     1/ 3
CAPE CHARLES BUO 0126      61                N/A     2/11   2/11
OFFSHORE WE BUOY 0111      63                N/A     2/ 6   2/ 6
64NM E OF VA BCH 0150   64 60  100/  4/  6 1021.8R   2/ 9   2/ 9
DUCK PIER NC     0100   62 51   40/  3/  3 1021.1R
44100 DUCK FRF   0124      61                N/A     2/ 7
44056 DUCK FRF   0111      58                N/A     2/11
OREGON INLET NC  0100   66 71   50/  7/  9 1021.4R
HATTERAS NC      0112          100/  6/  8   N/A
DIAMOND SHLS NC  0150   71 75   90/ 14/ 17 1020.8R   5/ 8   3/ 8
CAPE LOOKOUT NC  0200   69      70/ 13/ 14 1020.0S
$$



USA.gov is the U.S. government's official web portal to all federal, state and local government web resources and services.